Weather History for Cancun, Mexico

Change the Weather History Date:

Saturday, December 7, 2013

  Actual Average Record
Temperature  
Mean Temperature 80 °F -  
Max Temperature 84 °F 82 °F 96 °F (2014)
Min Temperature 75 °F 66 °F 53 °F (2010)
Cooling Degree Days 14    
Growing Degree Days 30 (Base 50)    
Moisture  
Dew Point 71 °F    
Average Humidity 76    
Maximum Humidity 89    
Minimum Humidity 62    
Precipitation  
Precipitation 0.00 in - - ()
Sea Level Pressure  
Sea Level Pressure 30.06 in    
Wind  
Wind Speed 7 mph ()    
Max Wind Speed 15 mph    
Max Gust Speed -    
Visibility 7.0 miles    
Events      
Averages and records for this station are not official NWS values.
T = Trace of Precipitation, MM = Missing Value Source: Averaged Metar Reports

Daily Weather History Graph

Daily Weather History Graph

Search for Another Location

Airport:

Trip Planner

Search our weather history database for the weather conditions in past years. The results will help you decide how hot, cold, wet, or windy it might be!

Date:

Astronomy

Dec. 07, 2013 Rise Set
Actual Time 6:12 AM CST 5:06 PM CST
Civil Twilight 5:48 AM CST 5:30 PM CST
Nautical Twilight 5:20 AM CST 5:57 PM CST
Astronomical Twilight 4:53 AM CST 6:24 PM CST
Moon 10:21 AM CST (12/7) 10:18 PM CST (12/7)
Length of Visible Light 11h 42m
Length of Day
10h 54m
Waxing Crescent, 29% of the Moon is Illuminated
Dec 7
Waxing Crescent
Dec 9
First Quarter
Dec 17
Full
Dec 25
Last Quarter
Jan 1
New

Hourly Weather History & Observations

Time (CST) Temp. Heat Index Dew Point Humidity Pressure Visibility Wind Dir Wind Speed Gust Speed Precip Events Conditions
12:43 AM 78.8 °F - 73.4 °F 83% 30.05 in 7.0 mi ESE 8.1 mph - N/A   Scattered Clouds
1:45 AM 78.8 °F - 73.4 °F 83% 30.04 in 7.0 mi ESE 6.9 mph - N/A   Scattered Clouds
2:45 AM 78.8 °F - 73.4 °F 83% 30.01 in 7.0 mi ESE 6.9 mph - N/A   Scattered Clouds
3:40 AM 78.8 °F - 73.4 °F 83% 30.04 in 7.0 mi East 5.8 mph - N/A   Scattered Clouds
4:40 AM 78.8 °F - 73.4 °F 83% 30.05 in 7.0 mi East 5.8 mph - N/A   Scattered Clouds
5:48 AM 77.0 °F - 73.4 °F 89% 30.04 in 7.0 mi East 5.8 mph - N/A   Scattered Clouds
6:42 AM 77.0 °F - 71.6 °F 83% 30.09 in 7.0 mi ENE 4.6 mph - N/A   Scattered Clouds
7:47 AM 80.6 °F 84.6 °F 71.6 °F 74% 30.11 in 7.0 mi East 13.8 mph - N/A   Scattered Clouds
8:48 AM 82.4 °F 87.2 °F 71.6 °F 70% 30.09 in 7.0 mi ESE 13.8 mph - N/A   Scattered Clouds
9:44 AM 82.4 °F 86.3 °F 69.8 °F 66% 30.12 in 7.0 mi ENE 10.4 mph - N/A   Scattered Clouds
10:43 AM 84.2 °F 88.4 °F 69.8 °F 62% 30.11 in 7.0 mi SE 10.4 mph - N/A   Scattered Clouds
11:46 AM 82.4 °F 87.2 °F 71.6 °F 70% 30.07 in 7.0 mi East 8.1 mph - N/A   Scattered Clouds
12:44 PM 82.4 °F 87.2 °F 71.6 °F 70% 30.07 in 7.0 mi ENE 6.9 mph - N/A   Scattered Clouds
1:43 PM 82.4 °F 86.3 °F 69.8 °F 66% 30.05 in 7.0 mi East 15.0 mph - N/A   Scattered Clouds
2:47 PM 82.4 °F 87.2 °F 71.6 °F 70% 30.02 in 7.0 mi East 9.2 mph - N/A   Scattered Clouds
3:41 PM 82.4 °F 87.2 °F 71.6 °F 70% 30.04 in 7.0 mi ESE 6.9 mph - N/A   Scattered Clouds
4:41 PM 78.8 °F - 71.6 °F 78% 30.04 in 7.0 mi ENE 5.8 mph - N/A   Scattered Clouds
5:42 PM 75.2 °F - 69.8 °F 83% 30.03 in 7.0 mi ENE 3.5 mph - N/A   Clear
6:40 PM 75.2 °F - 68.0 °F 78% 30.06 in 7.0 mi ENE 4.6 mph - N/A   Clear
7:43 PM 75.2 °F - 68.0 °F 78% 30.08 in 7.0 mi ENE 3.5 mph - N/A   Partly Cloudy
8:42 PM 75.2 °F - 68.0 °F 78% 30.06 in 7.0 mi ENE 5.8 mph - N/A   Partly Cloudy
9:48 PM 75.2 °F - 68.0 °F 78% 30.09 in 7.0 mi ENE 5.8 mph - N/A   Partly Cloudy
10:47 PM 75.2 °F - 68.0 °F 78% 30.08 in 7.0 mi ENE 5.8 mph - N/A   Clear
11:46 PM 75.2 °F - 66.2 °F 73% 30.02 in 7.0 mi East 5.8 mph - N/A   Clear